Year,Month,Day,Hour,Minute,Value (Times are PST for barometer in hPa)
2020,11,13,00,00,993.26
2020,11,13,00,01,993.26
2020,11,13,00,02,993.26
2020,11,13,00,03,993.26
2020,11,13,00,04,993.26
2020,11,13,00,05,993.26
2020,11,13,00,06,993.26
2020,11,13,00,07,993.26
2020,11,13,00,08,993.26
2020,11,13,00,09,993.26
2020,11,13,00,10,993.26
2020,11,13,00,11,993.26
2020,11,13,00,12,993.26
2020,11,13,00,13,993.26
2020,11,13,00,14,993.19
2020,11,13,00,15,992.58
2020,11,13,00,16,992.58
2020,11,13,00,17,992.58
2020,11,13,00,18,992.58
2020,11,13,00,19,992.58
2020,11,13,00,20,992.58
2020,11,13,00,21,992.58
2020,11,13,00,22,992.58
2020,11,13,00,23,992.58
2020,11,13,00,24,992.58
2020,11,13,00,25,992.58
2020,11,13,00,26,992.58
2020,11,13,00,27,992.58
2020,11,13,00,28,992.58
2020,11,13,00,29,992.55
2020,11,13,00,30,991.94
2020,11,13,00,31,991.94
2020,11,13,00,32,991.94
2020,11,13,00,33,991.94
2020,11,13,00,34,991.94
2020,11,13,00,35,991.94
2020,11,13,00,36,991.94
2020,11,13,00,37,991.94
2020,11,13,00,38,991.94
2020,11,13,00,39,991.94
2020,11,13,00,40,991.94
2020,11,13,00,41,991.94
2020,11,13,00,42,991.94
2020,11,13,00,43,991.94
2020,11,13,00,44,991.92
2020,11,13,00,45,991.53
2020,11,13,00,46,991.53
2020,11,13,00,47,991.53
2020,11,13,00,48,991.53
2020,11,13,00,49,991.53
2020,11,13,00,50,991.53
2020,11,13,00,51,991.53
2020,11,13,00,52,991.53
2020,11,13,00,53,991.53
2020,11,13,00,54,991.53
2020,11,13,00,55,991.53
2020,11,13,00,56,991.53
2020,11,13,00,57,991.53
2020,11,13,00,58,991.53
2020,11,13,00,59,991.49
2020,11,13,01,00,990.69
2020,11,13,01,01,990.69
2020,11,13,01,02,990.69
2020,11,13,01,03,990.69
2020,11,13,01,04,990.69
2020,11,13,01,05,990.69
2020,11,13,01,06,990.69
2020,11,13,01,07,990.69
2020,11,13,01,08,990.69
2020,11,13,01,09,990.69
2020,11,13,01,10,990.69
2020,11,13,01,11,990.69
2020,11,13,01,12,990.69
2020,11,13,01,13,990.69
2020,11,13,01,14,990.62
2020,11,13,01,15,990.04
2020,11,13,01,16,990.04
2020,11,13,01,17,990.04
2020,11,13,01,18,990.04
2020,11,13,01,19,990.04
2020,11,13,01,20,990.04
2020,11,13,01,21,990.04
2020,11,13,01,22,990.04
2020,11,13,01,23,990.04
2020,11,13,01,24,990.04
2020,11,13,01,25,990.04
2020,11,13,01,26,990.04
2020,11,13,01,27,990.04
2020,11,13,01,28,990.04
2020,11,13,01,29,990.00
2020,11,13,01,30,989.30
2020,11,13,01,31,989.30
2020,11,13,01,32,989.30
2020,11,13,01,33,989.30
2020,11,13,01,34,989.30
2020,11,13,01,35,989.30
2020,11,13,01,36,989.30
2020,11,13,01,37,989.30
2020,11,13,01,38,989.30
2020,11,13,01,39,989.30
2020,11,13,01,40,989.30
2020,11,13,01,41,989.30
2020,11,13,01,42,989.30
2020,11,13,01,43,989.30
2020,11,13,01,44,989.22
2020,11,13,01,45,988.49
2020,11,13,01,46,988.49
2020,11,13,01,47,988.49
2020,11,13,01,48,988.49
2020,11,13,01,49,988.49
2020,11,13,01,50,988.49
2020,11,13,01,51,988.49
2020,11,13,01,52,988.49
2020,11,13,01,53,988.49
2020,11,13,01,54,988.49
2020,11,13,01,55,988.49
2020,11,13,01,56,988.49
2020,11,13,01,57,988.49
2020,11,13,01,58,988.49
2020,11,13,01,59,988.46
2020,11,13,02,00,987.91
2020,11,13,02,01,987.91
2020,11,13,02,02,987.91
2020,11,13,02,03,987.91
2020,11,13,02,04,987.91
2020,11,13,02,05,987.91
2020,11,13,02,06,987.91
2020,11,13,02,07,987.91
2020,11,13,02,08,987.91
2020,11,13,02,09,987.91
2020,11,13,02,10,987.91
2020,11,13,02,11,987.91
2020,11,13,02,12,987.91
2020,11,13,02,13,987.91
2020,11,13,02,14,987.88
2020,11,13,02,15,987.40
2020,11,13,02,16,987.40
2020,11,13,02,17,987.40
2020,11,13,02,18,987.40
2020,11,13,02,19,987.40
2020,11,13,02,20,987.40
2020,11,13,02,21,987.40
2020,11,13,02,22,987.40
2020,11,13,02,23,987.40
2020,11,13,02,24,987.40
2020,11,13,02,25,987.40
2020,11,13,02,26,987.40
2020,11,13,02,27,987.40
2020,11,13,02,28,987.40
2020,11,13,02,29,987.37
2020,11,13,02,30,987.06
2020,11,13,02,31,987.06
2020,11,13,02,32,987.06
2020,11,13,02,33,987.06
2020,11,13,02,34,987.06
2020,11,13,02,35,987.06
2020,11,13,02,36,987.06
2020,11,13,02,37,987.06
2020,11,13,02,38,987.06
2020,11,13,02,39,987.06
2020,11,13,02,40,987.06
2020,11,13,02,41,987.06
2020,11,13,02,42,987.06
2020,11,13,02,43,987.06
2020,11,13,02,44,987.03
2020,11,13,02,45,986.59
2020,11,13,02,46,986.59
2020,11,13,02,47,986.59
2020,11,13,02,48,986.59
2020,11,13,02,49,986.59
2020,11,13,02,50,986.59
2020,11,13,02,51,986.59
2020,11,13,02,52,986.59
2020,11,13,02,53,986.59
2020,11,13,02,54,986.59
2020,11,13,02,55,986.59
2020,11,13,02,56,986.59
2020,11,13,02,57,986.59
2020,11,13,02,58,986.59
2020,11,13,02,59,986.55
2020,11,13,03,00,985.85
2020,11,13,03,01,985.85
2020,11,13,03,02,985.85
2020,11,13,03,03,985.85
2020,11,13,03,04,985.85
2020,11,13,03,05,985.85
2020,11,13,03,06,985.85
2020,11,13,03,07,985.85
2020,11,13,03,08,985.85
2020,11,13,03,09,985.85
2020,11,13,03,10,985.85
2020,11,13,03,11,985.85
2020,11,13,03,12,985.85
2020,11,13,03,13,985.85
2020,11,13,03,14,985.82
2020,11,13,03,15,985.24
2020,11,13,03,16,985.24
2020,11,13,03,17,985.24
2020,11,13,03,18,985.24
2020,11,13,03,19,985.24
2020,11,13,03,20,985.24
2020,11,13,03,21,985.24
2020,11,13,03,22,985.24
2020,11,13,03,23,985.24
2020,11,13,03,24,985.24
2020,11,13,03,25,985.24
2020,11,13,03,26,985.24
2020,11,13,03,27,985.24
2020,11,13,03,28,985.24
2020,11,13,03,29,985.18
2020,11,13,03,30,984.69
2020,11,13,03,31,984.69
2020,11,13,03,32,984.69
2020,11,13,03,33,984.69
2020,11,13,03,34,984.69
2020,11,13,03,35,984.69
2020,11,13,03,36,984.69
2020,11,13,03,37,984.69
2020,11,13,03,38,984.69
2020,11,13,03,39,984.69
2020,11,13,03,40,984.69
2020,11,13,03,41,984.69
2020,11,13,03,42,984.69
2020,11,13,03,43,984.69
2020,11,13,03,44,984.66
2020,11,13,03,45,984.22
2020,11,13,03,46,984.22
2020,11,13,03,47,984.22
2020,11,13,03,48,984.22
2020,11,13,03,49,984.22
2020,11,13,03,50,984.22
2020,11,13,03,51,984.22
2020,11,13,03,52,984.22
2020,11,13,03,53,984.22
2020,11,13,03,54,984.22
2020,11,13,03,55,984.22
2020,11,13,03,56,984.22
2020,11,13,03,57,984.22
2020,11,13,03,58,984.22
2020,11,13,03,59,984.20
2020,11,13,04,00,983.85
2020,11,13,04,01,983.85
2020,11,13,04,02,983.85
2020,11,13,04,03,983.85
2020,11,13,04,04,983.85
2020,11,13,04,05,983.85
2020,11,13,04,06,983.85
2020,11,13,04,07,983.85
2020,11,13,04,08,983.85
2020,11,13,04,09,983.85
2020,11,13,04,10,983.85
2020,11,13,04,11,983.85
2020,11,13,04,12,983.85
2020,11,13,04,13,983.85
2020,11,13,04,14,983.83
2020,11,13,04,15,983.54
2020,11,13,04,16,983.54
2020,11,13,04,17,983.54
2020,11,13,04,18,983.54
2020,11,13,04,19,983.54
2020,11,13,04,20,983.54
2020,11,13,04,21,983.54
2020,11,13,04,22,983.54
2020,11,13,04,23,983.54
2020,11,13,04,24,983.54
2020,11,13,04,25,983.54
2020,11,13,04,26,983.54
2020,11,13,04,27,983.54
2020,11,13,04,28,983.54
2020,11,13,04,29,983.54
2020,11,13,04,30,983.64
2020,11,13,04,31,983.64
2020,11,13,04,32,983.64
2020,11,13,04,33,983.64
2020,11,13,04,34,983.64
2020,11,13,04,35,983.64
2020,11,13,04,36,983.64
2020,11,13,04,37,983.64
2020,11,13,04,38,983.64
2020,11,13,04,39,983.64
2020,11,13,04,40,983.64
2020,11,13,04,41,983.64
2020,11,13,04,42,983.64
2020,11,13,04,43,983.64
2020,11,13,04,44,983.62
2020,11,13,04,45,983.24
2020,11,13,04,46,983.24
2020,11,13,04,47,983.24
2020,11,13,04,48,983.24
2020,11,13,04,49,983.24
2020,11,13,04,50,983.24
2020,11,13,04,51,983.24
2020,11,13,04,52,983.24
2020,11,13,04,53,983.24
2020,11,13,04,54,983.24
2020,11,13,04,55,983.24
2020,11,13,04,56,983.24
2020,11,13,04,57,983.24
2020,11,13,04,58,983.24
2020,11,13,04,59,983.27
2020,11,13,05,00,983.54
2020,11,13,05,01,983.54
2020,11,13,05,02,983.54
2020,11,13,05,03,983.54
2020,11,13,05,04,983.54
2020,11,13,05,05,983.54
2020,11,13,05,06,983.54
2020,11,13,05,07,983.54
2020,11,13,05,08,983.54
2020,11,13,05,09,983.54
2020,11,13,05,10,983.54
2020,11,13,05,11,983.54
2020,11,13,05,12,983.54
2020,11,13,05,13,983.54
2020,11,13,05,14,983.52
2020,11,13,05,15,983.17
2020,11,13,05,16,983.17
2020,11,13,05,17,983.17
2020,11,13,05,18,983.17
2020,11,13,05,19,983.17
2020,11,13,05,20,983.17
2020,11,13,05,21,983.17
2020,11,13,05,22,983.17
2020,11,13,05,23,983.17
2020,11,13,05,24,983.17
2020,11,13,05,25,983.17
2020,11,13,05,26,983.17
2020,11,13,05,27,983.17
2020,11,13,05,28,983.17
2020,11,13,05,29,983.08
2020,11,13,05,30,982.22
2020,11,13,05,31,982.22
2020,11,13,05,32,982.22
2020,11,13,05,33,982.22
2020,11,13,05,34,982.22
2020,11,13,05,35,982.22
2020,11,13,05,36,982.22
2020,11,13,05,37,982.22
2020,11,13,05,38,982.22
2020,11,13,05,39,982.22
2020,11,13,05,40,982.22
2020,11,13,05,41,982.22
2020,11,13,05,42,982.22
2020,11,13,05,43,982.22
2020,11,13,05,44,982.25
2020,11,13,05,45,982.56
2020,11,13,05,46,982.56
2020,11,13,05,47,982.56
2020,11,13,05,48,982.56
2020,11,13,05,49,982.56
2020,11,13,05,50,982.56
2020,11,13,05,51,982.56
2020,11,13,05,52,982.56
2020,11,13,05,53,982.56
2020,11,13,05,54,982.56
2020,11,13,05,55,982.56
2020,11,13,05,56,982.56
2020,11,13,05,57,982.56
2020,11,13,05,58,982.56
2020,11,13,05,59,982.57
2020,11,13,06,00,982.80
2020,11,13,06,01,982.80
2020,11,13,06,02,982.80
2020,11,13,06,03,982.80
2020,11,13,06,04,982.80
2020,11,13,06,05,982.80
2020,11,13,06,06,982.80
2020,11,13,06,07,982.80
2020,11,13,06,08,982.80
2020,11,13,06,09,982.80
2020,11,13,06,10,982.80
2020,11,13,06,11,982.80
2020,11,13,06,12,982.80
2020,11,13,06,13,982.80
2020,11,13,06,14,982.79
2020,11,13,06,15,982.63
2020,11,13,06,16,982.63
2020,11,13,06,17,982.63
2020,11,13,06,18,982.63
2020,11,13,06,19,982.63
2020,11,13,06,20,982.63
2020,11,13,06,21,982.63
2020,11,13,06,22,982.63
2020,11,13,06,23,982.63
2020,11,13,06,24,982.63
2020,11,13,06,25,982.63
2020,11,13,06,26,982.63
2020,11,13,06,27,982.63
2020,11,13,06,28,982.63
2020,11,13,06,29,982.63
2020,11,13,06,30,982.59
2020,11,13,06,31,982.59
2020,11,13,06,32,982.59
2020,11,13,06,33,982.59
2020,11,13,06,34,982.59
2020,11,13,06,35,982.59
2020,11,13,06,36,982.59
2020,11,13,06,37,982.59
2020,11,13,06,38,982.59
2020,11,13,06,39,982.59
2020,11,13,06,40,982.59
2020,11,13,06,41,982.59
2020,11,13,06,42,982.59
2020,11,13,06,43,982.59
2020,11,13,06,44,982.60
2020,11,13,06,45,982.70
2020,11,13,06,46,982.70
2020,11,13,06,47,982.70
2020,11,13,06,48,982.70
2020,11,13,06,49,982.70
2020,11,13,06,50,982.70
2020,11,13,06,51,982.70
2020,11,13,06,52,982.70
2020,11,13,06,53,982.70
2020,11,13,06,54,982.70
2020,11,13,06,55,982.70
2020,11,13,06,56,982.70
2020,11,13,06,57,982.70
2020,11,13,06,58,982.70
2020,11,13,06,59,982.70
2020,11,13,07,00,982.63
2020,11,13,07,01,982.63
2020,11,13,07,02,982.63
2020,11,13,07,03,982.63
2020,11,13,07,04,982.63
2020,11,13,07,05,982.63
2020,11,13,07,06,982.63
2020,11,13,07,07,982.63
2020,11,13,07,08,982.63
2020,11,13,07,09,982.63
2020,11,13,07,10,982.63
2020,11,13,07,11,982.63
2020,11,13,07,12,982.63
2020,11,13,07,13,982.63
2020,11,13,07,14,982.64
2020,11,13,07,15,982.80
2020,11,13,07,16,982.80
2020,11,13,07,17,982.80
2020,11,13,07,18,982.80
2020,11,13,07,19,982.80
2020,11,13,07,20,982.80
2020,11,13,07,21,982.80
2020,11,13,07,22,982.80
2020,11,13,07,23,982.80
2020,11,13,07,24,982.80
2020,11,13,07,25,982.80
2020,11,13,07,26,982.80
2020,11,13,07,27,982.80
2020,11,13,07,28,982.80
2020,11,13,07,29,982.82
2020,11,13,07,30,983.27
2020,11,13,07,31,983.27
2020,11,13,07,32,983.27
2020,11,13,07,33,983.27
2020,11,13,07,34,983.27
2020,11,13,07,35,983.27
2020,11,13,07,36,983.27
2020,11,13,07,37,983.27
2020,11,13,07,38,983.27
2020,11,13,07,39,983.27
2020,11,13,07,40,983.27
2020,11,13,07,41,983.27
2020,11,13,07,42,983.27
2020,11,13,07,43,983.27
2020,11,13,07,44,983.27
2020,11,13,07,45,983.17
2020,11,13,07,46,983.17
2020,11,13,07,47,983.17
2020,11,13,07,48,983.17
2020,11,13,07,49,983.17
2020,11,13,07,50,983.17
2020,11,13,07,51,983.17
2020,11,13,07,52,983.17
2020,11,13,07,53,983.17
2020,11,13,07,54,983.17
2020,11,13,07,55,983.17
2020,11,13,07,56,983.17
2020,11,13,07,57,983.17
2020,11,13,07,58,983.17
2020,11,13,07,59,983.17
2020,11,13,08,00,983.17
2020,11,13,08,01,983.17
2020,11,13,08,02,983.17
2020,11,13,08,03,983.17
2020,11,13,08,04,983.17
2020,11,13,08,05,983.17
2020,11,13,08,06,983.17
2020,11,13,08,07,983.17
2020,11,13,08,08,983.17
2020,11,13,08,09,983.17
2020,11,13,08,10,983.17
2020,11,13,08,11,983.17
2020,11,13,08,12,983.17
2020,11,13,08,13,983.17
2020,11,13,08,14,983.17
2020,11,13,08,15,983.17
2020,11,13,08,16,983.17
2020,11,13,08,17,983.17
2020,11,13,08,18,983.17
2020,11,13,08,19,983.17
2020,11,13,08,20,983.17
2020,11,13,08,21,983.17
2020,11,13,08,22,983.17
2020,11,13,08,23,983.17
2020,11,13,08,24,983.17
2020,11,13,08,25,983.17
2020,11,13,08,26,983.17
2020,11,13,08,27,983.17
2020,11,13,08,28,983.17
2020,11,13,08,29,983.17
2020,11,13,08,30,983.10
2020,11,13,08,31,983.10
2020,11,13,08,32,983.10
2020,11,13,08,33,983.10
2020,11,13,08,34,983.10
2020,11,13,08,35,983.10
2020,11,13,08,36,983.10
2020,11,13,08,37,983.10
2020,11,13,08,38,983.10
2020,11,13,08,39,983.10
2020,11,13,08,40,983.10
2020,11,13,08,41,983.10
2020,11,13,08,42,983.10
2020,11,13,08,43,983.10
2020,11,13,08,44,983.10
2020,11,13,08,45,983.14
2020,11,13,08,46,983.14
2020,11,13,08,47,983.14
2020,11,13,08,48,983.14
2020,11,13,08,49,983.14
2020,11,13,08,50,983.14
2020,11,13,08,51,983.14
2020,11,13,08,52,983.14
2020,11,13,08,53,983.14
2020,11,13,08,54,983.14
2020,11,13,08,55,983.14
2020,11,13,08,56,983.14
2020,11,13,08,57,983.14
2020,11,13,08,58,983.14
2020,11,13,08,59,983.14
2020,11,13,09,00,983.17
2020,11,13,09,01,983.17
2020,11,13,09,02,983.17
2020,11,13,09,03,983.17
2020,11,13,09,04,983.17
2020,11,13,09,05,983.17
2020,11,13,09,06,983.17
2020,11,13,09,07,983.17
2020,11,13,09,08,983.17
2020,11,13,09,09,983.17
2020,11,13,09,10,983.17
2020,11,13,09,11,983.17
2020,11,13,09,12,983.17
2020,11,13,09,13,983.17
2020,11,13,09,14,983.23
2020,11,13,09,15,983.81
2020,11,13,09,16,983.81
2020,11,13,09,17,983.81
2020,11,13,09,18,983.81
2020,11,13,09,19,983.81
2020,11,13,09,20,983.81
2020,11,13,09,21,983.81
2020,11,13,09,22,983.81
2020,11,13,09,23,983.81
2020,11,13,09,24,983.81
2020,11,13,09,25,983.81
2020,11,13,09,26,983.81
2020,11,13,09,27,983.81
2020,11,13,09,28,983.81
2020,11,13,09,29,983.83
2020,11,13,09,30,984.19
2020,11,13,09,31,984.19
2020,11,13,09,32,984.19
2020,11,13,09,33,984.19
2020,11,13,09,34,984.19
2020,11,13,09,35,984.19
2020,11,13,09,36,984.19
2020,11,13,09,37,984.19
2020,11,13,09,38,984.19
2020,11,13,09,39,984.19
2020,11,13,09,40,984.19
2020,11,13,09,41,984.19
2020,11,13,09,42,984.19
2020,11,13,09,43,984.19
2020,11,13,09,44,984.20
2020,11,13,09,45,984.36
2020,11,13,09,46,984.36
2020,11,13,09,47,984.36
2020,11,13,09,48,984.36
2020,11,13,09,49,984.36
2020,11,13,09,50,984.36
2020,11,13,09,51,984.36
2020,11,13,09,52,984.36
2020,11,13,09,53,984.36
2020,11,13,09,54,984.36
2020,11,13,09,55,984.36
2020,11,13,09,56,984.36
2020,11,13,09,57,984.36
2020,11,13,09,58,984.36
2020,11,13,09,59,984.38
2020,11,13,10,00,984.76
2020,11,13,10,01,984.76
2020,11,13,10,02,984.76
2020,11,13,10,03,984.76
2020,11,13,10,04,984.76
2020,11,13,10,05,984.76
2020,11,13,10,06,984.76
2020,11,13,10,07,984.76
2020,11,13,10,08,984.76
2020,11,13,10,09,984.76
2020,11,13,10,10,984.76
2020,11,13,10,11,984.76
2020,11,13,10,12,984.76
2020,11,13,10,13,984.76
2020,11,13,10,14,984.79
2020,11,13,10,15,985.41
2020,11,13,10,16,985.41
2020,11,13,10,17,985.41
2020,11,13,10,18,985.41
2020,11,13,10,19,985.41
2020,11,13,10,20,985.41
2020,11,13,10,21,985.41
2020,11,13,10,22,985.41
2020,11,13,10,23,985.41
2020,11,13,10,24,985.41
2020,11,13,10,25,985.41
2020,11,13,10,26,985.41
2020,11,13,10,27,985.41
2020,11,13,10,28,985.41
2020,11,13,10,29,985.45
2020,11,13,10,30,986.22
2020,11,13,10,31,986.22
2020,11,13,10,32,986.22
2020,11,13,10,33,986.22
2020,11,13,10,34,986.22
2020,11,13,10,35,986.22
2020,11,13,10,36,986.22
2020,11,13,10,37,986.22
2020,11,13,10,38,986.22
2020,11,13,10,39,986.22
2020,11,13,10,40,986.22
2020,11,13,10,41,986.22
2020,11,13,10,42,986.22
2020,11,13,10,43,986.22
2020,11,13,10,44,986.25
2020,11,13,10,45,986.73
2020,11,13,10,46,986.73
2020,11,13,10,47,986.73
2020,11,13,10,48,986.73
2020,11,13,10,49,986.73
2020,11,13,10,50,986.73
2020,11,13,10,51,986.73
2020,11,13,10,52,986.73
2020,11,13,10,53,986.73
2020,11,13,10,54,986.73
2020,11,13,10,55,986.73
2020,11,13,10,56,986.73
2020,11,13,10,57,986.73
2020,11,13,10,58,986.73
2020,11,13,10,59,986.76
2020,11,13,11,00,987.34
2020,11,13,11,01,987.34
2020,11,13,11,02,987.34
2020,11,13,11,03,987.34
2020,11,13,11,04,987.34
2020,11,13,11,05,987.34
2020,11,13,11,06,987.34
2020,11,13,11,07,987.34
2020,11,13,11,08,987.34
2020,11,13,11,09,987.34
2020,11,13,11,10,987.34
2020,11,13,11,11,987.34
2020,11,13,11,12,987.34
2020,11,13,11,13,987.34
2020,11,13,11,14,987.37
2020,11,13,11,15,987.88
2020,11,13,11,16,987.88
2020,11,13,11,17,987.88
2020,11,13,11,18,987.88
2020,11,13,11,19,987.88
2020,11,13,11,20,987.88
2020,11,13,11,21,987.88
2020,11,13,11,22,987.88
2020,11,13,11,23,987.88
2020,11,13,11,24,987.88
2020,11,13,11,25,987.88
2020,11,13,11,26,987.88
2020,11,13,11,27,987.88
2020,11,13,11,28,987.88
2020,11,13,11,29,987.88
2020,11,13,11,30,987.84
2020,11,13,11,31,987.84
2020,11,13,11,32,987.84
2020,11,13,11,33,987.84
2020,11,13,11,34,987.84
2020,11,13,11,35,987.84
2020,11,13,11,36,987.84
2020,11,13,11,37,987.84
2020,11,13,11,38,987.84
2020,11,13,11,39,987.84
2020,11,13,11,40,987.84
2020,11,13,11,41,987.84
2020,11,13,11,42,987.84
2020,11,13,11,43,987.84
2020,11,13,11,44,987.86
2020,11,13,11,45,988.32
2020,11,13,11,46,988.32
2020,11,13,11,47,988.32
2020,11,13,11,48,988.32
2020,11,13,11,49,988.32
2020,11,13,11,50,988.32
2020,11,13,11,51,988.32
2020,11,13,11,52,988.32
2020,11,13,11,53,988.32
2020,11,13,11,54,988.32
2020,11,13,11,55,988.32
2020,11,13,11,56,988.32
2020,11,13,11,57,988.32
2020,11,13,11,58,988.32
2020,11,13,11,59,988.33
2020,11,13,12,00,988.55
2020,11,13,12,01,988.55
2020,11,13,12,02,988.55
2020,11,13,12,03,988.55
2020,11,13,12,04,988.55
2020,11,13,12,05,988.55
2020,11,13,12,06,988.55
2020,11,13,12,07,988.55
2020,11,13,12,08,988.55
2020,11,13,12,09,988.55
2020,11,13,12,10,988.55
2020,11,13,12,11,988.55
2020,11,13,12,12,988.55
2020,11,13,12,13,988.55
2020,11,13,12,14,988.55
2020,11,13,12,15,988.89
2020,11,13,12,16,988.89
2020,11,13,12,17,988.89
2020,11,13,12,18,988.89
2020,11,13,12,19,988.89
2020,11,13,12,20,988.89
2020,11,13,12,21,988.89
2020,11,13,12,22,988.89
2020,11,13,12,23,988.89
2020,11,13,12,24,988.89
2020,11,13,12,25,988.89
2020,11,13,12,26,988.89
2020,11,13,12,27,988.89
2020,11,13,12,28,988.89
2020,11,13,12,29,988.92
2020,11,13,12,30,989.40
2020,11,13,12,31,989.40
2020,11,13,12,32,989.40
2020,11,13,12,33,989.40
2020,11,13,12,34,989.40
2020,11,13,12,35,989.40
2020,11,13,12,36,989.40
2020,11,13,12,37,989.40
2020,11,13,12,38,989.40
2020,11,13,12,39,989.40
2020,11,13,12,40,989.40
2020,11,13,12,41,989.40
2020,11,13,12,42,989.40
2020,11,13,12,43,989.40
2020,11,13,12,44,989.40
2020,11,13,12,45,989.47
2020,11,13,12,46,989.47
2020,11,13,12,47,989.47
2020,11,13,12,48,989.47
2020,11,13,12,49,989.47
2020,11,13,12,50,989.47
2020,11,13,12,51,989.47
2020,11,13,12,52,989.47
2020,11,13,12,53,989.47
2020,11,13,12,54,989.47
2020,11,13,12,55,989.47
2020,11,13,12,56,989.47
2020,11,13,12,57,989.47
2020,11,13,12,58,989.47
2020,11,13,12,59,989.47
2020,11,13,13,00,989.77
2020,11,13,13,01,989.77
2020,11,13,13,02,989.77
2020,11,13,13,03,989.77
2020,11,13,13,04,989.77
2020,11,13,13,05,989.77
2020,11,13,13,06,989.77
2020,11,13,13,07,989.77
2020,11,13,13,08,989.77
2020,11,13,13,09,989.77
2020,11,13,13,10,989.77
2020,11,13,13,11,989.77
2020,11,13,13,12,989.77
2020,11,13,13,13,989.77
2020,11,13,13,14,989.77
2020,11,13,13,15,990.03
2020,11,13,13,16,990.04
2020,11,13,13,17,990.04
2020,11,13,13,18,990.04
2020,11,13,13,19,990.04
2020,11,13,13,20,990.04
2020,11,13,13,21,990.04
2020,11,13,13,22,990.04
2020,11,13,13,23,990.04
2020,11,13,13,24,990.04
2020,11,13,13,25,990.04
2020,11,13,13,26,990.04
2020,11,13,13,27,990.04
2020,11,13,13,28,990.04
2020,11,13,13,29,990.04
2020,11,13,13,30,990.45
2020,11,13,13,31,990.45
2020,11,13,13,32,990.45
2020,11,13,13,33,990.45
2020,11,13,13,34,990.45
2020,11,13,13,35,990.45
2020,11,13,13,36,990.45
2020,11,13,13,37,990.45
2020,11,13,13,38,990.45
2020,11,13,13,39,990.45
2020,11,13,13,40,990.45
2020,11,13,13,41,990.45
2020,11,13,13,42,990.45
2020,11,13,13,43,990.45
2020,11,13,13,44,990.45
2020,11,13,13,45,990.96
2020,11,13,13,46,990.96
2020,11,13,13,47,990.96
2020,11,13,13,48,990.96
2020,11,13,13,49,990.96
2020,11,13,13,50,990.96
2020,11,13,13,51,990.96
2020,11,13,13,52,990.96
2020,11,13,13,53,990.96
2020,11,13,13,54,990.96
2020,11,13,13,55,990.96
2020,11,13,13,56,990.96
2020,11,13,13,57,990.96
2020,11,13,13,58,990.96
2020,11,13,13,59,990.96
2020,11,13,14,00,991.03
2020,11,13,14,01,991.03
2020,11,13,14,02,991.03
2020,11,13,14,03,991.03
2020,11,13,14,04,991.03
2020,11,13,14,05,991.03
2020,11,13,14,06,991.03
2020,11,13,14,07,991.03
2020,11,13,14,08,991.03
2020,11,13,14,09,991.03
2020,11,13,14,10,991.03
2020,11,13,14,11,991.03
2020,11,13,14,12,991.03
2020,11,13,14,13,991.03
2020,11,13,14,14,991.03
2020,11,13,14,15,991.51
2020,11,13,14,16,991.53
2020,11,13,14,17,991.53
2020,11,13,14,18,991.53
2020,11,13,14,19,991.53
2020,11,13,14,20,991.53
2020,11,13,14,21,991.53
2020,11,13,14,22,991.53
2020,11,13,14,23,991.53
2020,11,13,14,24,991.53
2020,11,13,14,25,991.53
2020,11,13,14,26,991.53
2020,11,13,14,27,991.53
2020,11,13,14,28,991.53
2020,11,13,14,29,991.53
2020,11,13,14,30,991.96
2020,11,13,14,31,991.98
2020,11,13,14,32,991.98
2020,11,13,14,33,991.98
2020,11,13,14,34,991.98
2020,11,13,14,35,991.98
2020,11,13,14,36,991.98
2020,11,13,14,37,991.98
2020,11,13,14,38,991.98
2020,11,13,14,39,991.98
2020,11,13,14,40,991.98
2020,11,13,14,41,991.98
2020,11,13,14,42,991.98
2020,11,13,14,43,991.98
2020,11,13,14,44,991.98
2020,11,13,14,45,992.52
2020,11,13,14,46,992.55
2020,11,13,14,47,992.55
2020,11,13,14,48,992.55
2020,11,13,14,49,992.55
2020,11,13,14,50,992.55
2020,11,13,14,51,992.55
2020,11,13,14,52,992.55
2020,11,13,14,53,992.55
2020,11,13,14,54,992.55
2020,11,13,14,55,992.55
2020,11,13,14,56,992.55
2020,11,13,14,57,992.55
2020,11,13,14,58,992.55
2020,11,13,14,59,992.55
2020,11,13,15,00,993.10
2020,11,13,15,01,993.13
2020,11,13,15,02,993.13
2020,11,13,15,03,993.13
2020,11,13,15,04,993.13
2020,11,13,15,05,993.13
2020,11,13,15,06,993.13
2020,11,13,15,07,993.13
2020,11,13,15,08,993.13
2020,11,13,15,09,993.13
2020,11,13,15,10,993.13
2020,11,13,15,11,993.13
2020,11,13,15,12,993.13
2020,11,13,15,13,993.13
2020,11,13,15,14,993.13
2020,11,13,15,15,993.71
2020,11,13,15,16,993.74
2020,11,13,15,17,993.74
2020,11,13,15,18,993.74
2020,11,13,15,19,993.74
2020,11,13,15,20,993.74
2020,11,13,15,21,993.74
2020,11,13,15,22,993.74
2020,11,13,15,23,993.74
2020,11,13,15,24,993.74
2020,11,13,15,25,993.74
2020,11,13,15,26,993.74
2020,11,13,15,27,993.74
2020,11,13,15,28,993.74
2020,11,13,15,29,993.74
2020,11,13,15,30,994.14
2020,11,13,15,31,994.14
2020,11,13,15,32,994.14
2020,11,13,15,33,994.14
2020,11,13,15,34,994.14
2020,11,13,15,35,994.14
2020,11,13,15,36,994.14
2020,11,13,15,37,994.14
2020,11,13,15,38,994.14
2020,11,13,15,39,994.14
2020,11,13,15,40,994.14
2020,11,13,15,41,994.14
2020,11,13,15,42,994.14
2020,11,13,15,43,994.14
2020,11,13,15,44,994.14
2020,11,13,15,45,994.56
2020,11,13,15,46,994.58
2020,11,13,15,47,994.58
2020,11,13,15,48,994.58
2020,11,13,15,49,994.58
2020,11,13,15,50,994.58
2020,11,13,15,51,994.58
2020,11,13,15,52,994.58
2020,11,13,15,53,994.58
2020,11,13,15,54,994.58
2020,11,13,15,55,994.58
2020,11,13,15,56,994.58
2020,11,13,15,57,994.58
2020,11,13,15,58,994.58
2020,11,13,15,59,994.58
2020,11,13,16,00,994.79
2020,11,13,16,01,994.79
2020,11,13,16,02,994.79
2020,11,13,16,03,994.79
2020,11,13,16,04,994.79
2020,11,13,16,05,994.79
2020,11,13,16,06,994.79
2020,11,13,16,07,994.79
2020,11,13,16,08,994.79
2020,11,13,16,09,994.79
2020,11,13,16,10,994.79
2020,11,13,16,11,994.79
2020,11,13,16,12,994.79
2020,11,13,16,13,994.79
2020,11,13,16,14,994.79
2020,11,13,16,15,995.36
2020,11,13,16,16,995.36
2020,11,13,16,17,995.36
2020,11,13,16,18,995.36
2020,11,13,16,19,995.36
2020,11,13,16,20,995.36
2020,11,13,16,21,995.36
2020,11,13,16,22,995.36
2020,11,13,16,23,995.36
2020,11,13,16,24,995.36
2020,11,13,16,25,995.36
2020,11,13,16,26,995.36
2020,11,13,16,27,995.36
2020,11,13,16,28,995.36
2020,11,13,16,29,995.36
2020,11,13,16,30,995.78
2020,11,13,16,31,995.80
2020,11,13,16,32,995.80
2020,11,13,16,33,995.80
2020,11,13,16,34,995.80
2020,11,13,16,35,995.80
2020,11,13,16,36,995.80